{"data":{"norad_id":53086,"intl_designator":"2022-077AV","name":"STARLINK-4318","alt_names":[],"object_type":"PAYLOAD","status":"ACTIVE","operator":null,"country":"US","launch_date":"2022-07-11","launch_site_code":"AFWTR","launch_vehicle":null,"mission":null,"orbit_class":"UNKNOWN","rcs_meters":null,"size_class":null,"mass_kg":null,"dimensions":null,"purposes":["comms"],"wikipedia_slug":null,"has_3d_model":false,"image_url":null,"decayed_at":null,"tle_current":{"epoch":"2026-05-25T02:07:08.272416Z","epoch_age_seconds":61413,"freshness":"FRESH","line1":"1 53086U 22077AV  26145.08829019  .00007205  00000+0  50345-3 0  9998","line2":"2 53086  97.4478 325.1129 0001065 118.8690 241.2644 15.05609215212418","mean_motion":15.05609215,"eccentricity":0.0001065,"inclination_deg":97.4478,"raan_deg":325.1129,"arg_perigee_deg":118.869,"mean_anomaly_deg":241.2644,"bstar":0.00050345,"rev_number":21241,"period_min":95.642347672533,"perigee_km":548.89845295493,"apogee_km":550.37406865948,"semimajor_km":6927.7732608072,"source":"CELESTRAK","updated_at":"2026-05-25T13:38:17.315237Z"}}}